Regional Weather Roundup
Issued by NWS Upton, NY

Current Version | Previous Version | Graphics & Text | Print | Product List | Glossary Off
Versions: 1 2 3 4 5 6 7 8 9 10 11 12 13 14 15 16 17 18 19 20 21 22 23 24 25 26 27 28 29 30 31 32 33 34 35 36 37 38 39 40 41 42 43 44 45 46 47 48 49 50

000
ASUS41 KOKX 170708
RWROKX

REGIONAL WEATHER ROUNDUP
NATIONAL WEATHER SERVICE NEW YORK NY
300 AM EDT TUE OCT 17 2017

NOTE: "FAIR" INDICATES FEW OR NO CLOUDS BELOW 12,000 FEET WITH NO
SIGNIFICANT WEATHER AND/OR OBSTRUCTIONS TO VISIBILITY.

NYZ071-072-176-178-NJZ106-104-170800-
NEW YORK CITY METRO AREA

CITY           SKY/WX    TMP DP  RH WIND       PRES   REMARKS
Central Park   CLEAR     45  31  58 VRB5      30.27R
Bronx Bot Gard   N/A     43  32  65 CALM      30.25R
LaGuardia APRT CLEAR     47  34  60 NW10      30.24R
Kennedy INTL   CLEAR     45  32  60 NW10      30.25R
Breezy Point     N/A     45 N/A N/A N8          N/A
Newark/Liberty PTCLDY    45  30  55 NW7       30.25R
Teterboro      CLEAR     43  31  62 N5        30.25R
$$

NYZ177-179-078>081-170800-
LONG ISLAND NEW YORK

CITY           SKY/WX    TMP DP  RH WIND       PRES   REMARKS
Jones Beach      N/A     46 N/A N/A N8          N/A
Matinecock PT    N/A     48 N/A N/A N14         N/A
Farmingdale    CLEAR     45  34  65 N6        30.23R
MacArthur/ISP  CLEAR     46  33  60 N12       30.22R
Shirley        CLEAR     47  36  65 N7        30.22R
Mt Sinai Harb    N/A    N/A N/A N/A N18         N/A
Westhampton    MOCLDY    47  36  65 N6        30.22R
East Hampton   FAIR      45  33  62 N7        30.20R
Montauk          N/A     49  35  58 N12G21    30.20R
$$

NYZ052-065-067-170800-
HUDSON VALLEY

CITY           SKY/WX    TMP DP  RH WIND       PRES   REMARKS
White Plains   CLEAR     38  32  79 N7        30.23R WCI  33
Larchmont Harb   N/A     45 N/A N/A NW6         N/A
Croton On Huds   N/A     41 N/A N/A NE3         N/A
Newburgh       CLEAR     36  34  93 CALM      30.25S
Montgomery     PTCLDY    38  32  79 CALM      30.24R
Poughkeepsie   CLEAR     34  32  92 CALM      30.24R
Albany         PTCLDY    37  31  78 NW5       30.26R WCI  33
$$

NJZ001-105-106-008-010-013-015-019>022-104-170800-
NEW JERSEY

CITY           SKY/WX    TMP DP  RH WIND       PRES   REMARKS
Newark/Liberty PTCLDY    45  30  55 NW7       30.25R
Teterboro      CLEAR     43  31  62 N5        30.25R
Caldwell       CLEAR     38  34  85 CALM      30.26R
Somerville     CLEAR     37  34  89 NW3       30.25R
Linden         FAIR      43  31  62 N6        30.26S
Perth Amboy      N/A     45 N/A N/A NW10        N/A
Sussex         CLEAR     38  33  82 NW5       30.26R WCI  34
Andover          N/A     35  33  92 N5        30.26R WCI  31
Trenton        CLEAR     40  31  70 N6        30.26R
Millville      CLEAR     43  38  82 N5        30.25F
Atlantic City  CLEAR     40  35  83 NW7       30.24S
Wrightstown    NOT AVBL
Toms River       N/A     39  34  82 NW5       30.25S
Belmar         PTCLDY    40  33  76 NW7       30.25S
$$

PAZ047>061-062-071-170800-
EASTERN PENNSYLVANIA

CITY           SKY/WX    TMP DP  RH WIND       PRES   REMARKS
Philadelphia   CLEAR     45  33  63 N8        30.28S
Allentown      CLEAR     40  31  70 NW3       30.27S
Scranton       CLEAR     39  31  72 CALM      30.26S
$$

CTZ002-004>006-009-010-012-RIZ004-006-007-MAZ004-011-015-170800-
SOUTHERN NEW ENGLAND
 IN CT

CITY           SKY/WX    TMP DP  RH WIND       PRES   REMARKS
Bradley INTL   CLEAR     39  33  79 N5        30.23R
Hartford       CLEAR     43  33  68 N7        30.23R
Danbury        CLEAR     37  33  85 CALM      30.25R
Wtrbury/Oxford CLEAR     34  32  92 N7        30.23R WCI  28
Norwalk Harbor   N/A     43 N/A N/A NW9         N/A
Bridgeport     CLEAR     43  34  70 N6        30.23R
Meriden        CLEAR     42  33  70 N7        30.23R
New Haven      CLEAR     43  33  68 N5        30.23R
Chester        FAIR      41  36  81 NW7       30.21R
Groton         CLEAR     40  35  83 N5        30.20R
Wilimantic     CLEAR     38  35  89 N3        30.22R

 IN RI

CITY           SKY/WX    TMP DP  RH WIND       PRES   REMARKS
Providence     PTCLDY    42  33  70 N8        30.19R
Block Island   CLEAR     46  35  65 N15G23    30.19R
Westerly       CLEAR     43  35  73 N9        30.20R
 IN MA

CITY           SKY/WX    TMP DP  RH WIND       PRES   REMARKS
Boston         CLEAR     42  33  70 NW13      30.19R
Worcester      CLEAR     36  30  79 NW9       30.18R WCI  29
Westfield      CLEAR     37  34  89 NE5       30.23R WCI  33
Provincetown   CLOUDY    49  37  63 N16G24    30.14S
Nantucket      MOCLDY    49  43  80 N18       30.11S
$$

ANZ330-335-338-340-345-350-353-355-170800-
COASTAL MARINE OBSERVATIONS


STATION/POSITION TIME  SKY/WX   TEMP    WIND        PRES    VSBY  WAVE
                                AIR SEA DIR/SP/G                  HT/PER
                 (UTC)          (F)     (DEG/KT/KT) (MB)    (MI)  (FT/S)
NY HARB ENTRANCE 0550            51 66  360/ 17/ 21 1022.6          3/ 4
20 S FIRE ISLAND 0550            52 64   10/ 19/ 25 1022.3          5/ 5
GREAT SOUTH BAY  0630            49 63  340/ 12/ 16   N/A
15 E BARNEGAT LI 0630               67                N/A           6/ 6
HUDSON CANYON    0650            54 65   10/ 17/ 21 1020.7          6/ 7
KINGS POINT      0648               66   20/ 12/ 14 1024.7
EXECUTION ROCKS  0630            49     360/ 12/ 17   N/A
WESTERN LI SOUND 0549            48     350/ 10/ 14   N/A           0
CENTRAL LI SOUND NOT AVBL
EASTERN LI SOUND NOT AVBL
ROBBINS REEF     0642                   320/ 11/ 13 1024.8
$$


>>>>>>>>>>>>>>>>>>>>>>>>>>>> KEY <<<<<<<<<<<<<<<<<<<<<<<<<<<
>                                                          <
>     SKY/WX - Sky Condition/Present Weather               <
>     TMP    - Temperature in Fahrenheit                   <
>     DP     - Dew Point in Fahrenheit                     <
>     RH     - Relative Humidity in Percent                <
>     WIND   - Direction (from) and Speed in MPH           <
>     PRES   - Mean Sea Level Pressure (inches of Hg)      <
>     WCI    - Wind Chill Index                            <
>     VSB    - VISIBILITY IN MILES                         <
>     HX     - HEAT INDEX                                  <
>     TC     - TEMPERATURE IN CELSIUS                      <
>     VRB    - VARIABLE WIND DIRECTION                     <
>                                                          <
>>>>>>>>>>>>>>>>>>>>>>>>>>>> KEY <<<<<<<<<<<<<<<<<<<<<<<<<<<



USA.gov is the U.S. government's official web portal to all federal, state and local government web resources and services.